Date,TemperatureHighF,TemperatureAvgF,TemperatureLowF,DewpointHighF,DewpointAvgF,DewpointLowF,HumidityHigh,HumidityAvg,HumidityLow,PressureMaxIn,PressureMinIn,WindSpeedMaxMPH,WindSpeedAvgMPH,GustSpeedMaxMPH,PrecipitationSumIn
2013-1-1,43.0,37.7,32.0,11.0,7.4,3.0,35,28,19,0.00,40.00,43,14,63,0.00
2013-1-2,57.0,42.0,33.0,10.0,5.8,1.0,32,23,13,0.00,40.00,37,14,56,0.00
2013-1-3,52.0,43.5,38.0,12.0,7.6,5.0,29,23,17,0.00,40.00,10,3,21,0.00
2013-1-4,52.0,42.7,36.0,13.0,6.8,4.0,26,23,16,0.00,40.00,6,2,12,0.00
2013-1-5,51.0,42.5,37.0,12.0,5.3,1.0,28,21,15,0.00,40.00,8,4,14,0.00
2013-1-6,49.0,39.6,32.0,25.0,14.6,1.0,56,37,21,0.00,40.00,44,15,64,0.00
2013-1-7,55.0,45.7,37.0,26.0,12.2,6.0,45,27,15,0.00,40.00,58,36,79,0.00
2013-1-8,62.0,53.4,49.0,31.0,21.1,-99.9,44,34,24,0.00,40.00,34,-31,51,0.00
2013-1-9,58.0,52.3,48.0,28.0,26.1,22.0,45,36,27,0.00,40.00,24,5,46,0.00
2013-1-10,52.0,38.9,33.0,29.0,10.3,-2.0,48,31,17,0.00,40.00,36,25,60,0.00
2013-1-11,43.0,33.8,30.0,13.0,4.6,0.0,44,29,17,0.00,40.00,29,12,50,0.00
2013-1-12,39.0,30.8,25.0,12.0,5.9,2.0,47,35,21,0.00,40.00,23,10,44,0.00
2013-1-13,36.0,29.6,25.0,5.0,1.2,-4.0,38,29,20,0.00,40.00,42,6,58,0.00
2013-1-14,34.0,27.3,19.0,-3.0,-6.8,-10.0,34,22,14,0.00,40.00,42,11,58,0.00
2013-1-15,45.0,34.1,27.0,1.0,-4.5,-7.0,23,19,13,0.00,40.00,6,2,12,0.00
2013-1-16,53.0,44.1,35.0,8.0,5.1,0.0,26,20,15,0.00,40.00,17,4,34,0.00
2013-1-17,57.0,48.2,41.0,5.0,1.8,-5.0,19,15,11,0.00,40.00,34,12,52,0.00
2013-1-18,59.0,48.7,43.0,3.0,-2.1,-6.0,16,12,10,0.00,40.00,13,4,22,0.00
2013-1-19,61.0,50.3,45.0,2.0,-3.0,-6.0,13,11,8,0.00,40.00,24,6,33,0.00
2013-1-20,59.0,51.2,41.0,0.0,-2.6,-5.0,16,11,8,0.00,40.00,37,14,49,0.00
2013-1-21,65.0,51.9,41.0,2.0,0.0,-4.0,18,12,8,0.00,40.00,29,10,43,0.00
2013-1-22,63.0,55.0,48.0,6.0,2.3,-2.0,14,12,9,0.00,40.00,8,4,21,0.00
2013-1-23,59.0,54.1,50.0,38.0,13.2,4.0,58,23,12,0.00,40.00,14,4,31,0.00
2013-1-24,50.0,46.2,44.0,48.0,42.9,35.0,99,89,58,0.00,40.00,7,2,24,0.23
2013-1-25,53.0,48.3,46.0,48.0,45.0,42.0,100,88,74,0.00,40.00,5,1,8,0.05
2013-1-26,56.0,48.1,44.0,49.0,44.2,26.0,100,88,39,0.00,40.00,26,5,33,0.09
2013-1-27,50.0,44.4,38.0,37.0,22.6,9.0,75,45,20,0.00,40.00,27,12,42,0.00
2013-1-28,43.0,37.1,32.0,18.0,11.9,3.0,49,35,19,0.00,40.00,27,15,40,0.00
2013-1-29,54.0,44.3,33.0,27.0,19.2,14.0,47,37,29,0.00,40.00,55,7,69,0.00
2013-1-30,59.0,52.0,46.0,28.0,26.5,24.0,44,37,28,0.00,40.00,37,10,69,0.00
2013-1-31,66.0,54.6,45.0,27.0,25.1,22.0,45,33,22,0.00,40.00,18,7,26,0.00
2013-2-1,65.0,53.4,47.0,27.0,24.8,22.0,41,33,22,0.00,40.00,12,4,18,0.00
2013-2-2,62.0,54.7,51.0,32.0,22.4,19.0,46,28,21,0.00,40.00,9,2,15,0.00
2013-2-3,66.0,54.9,48.0,34.0,30.0,23.0,53,40,20,0.00,40.00,17,5,24,0.00
2013-2-4,69.0,56.8,48.0,26.0,18.1,14.0,35,22,14,0.00,40.00,31,11,41,0.00
2013-2-5,64.0,56.0,48.0,22.0,16.2,-3.0,30,21,8,0.00,40.00,40,6,52,0.00
2013-2-6,62.0,54.3,48.0,14.0,-1.7,-10.0,24,10,5,0.00,40.00,40,11,57,0.00
2013-2-7,61.0,50.3,41.0,19.0,11.2,-11.0,31,22,8,0.00,40.00,24,7,45,0.00
2013-2-8,42.0,38.4,35.0,23.0,16.3,8.0,53,41,27,0.00,40.00,35,16,52,0.00
2013-2-9,52.0,41.2,35.0,18.0,14.0,10.0,42,34,21,0.00,40.00,24,11,37,0.00
2013-2-10,48.0,41.1,36.0,16.0,11.9,9.0,43,30,22,0.00,40.00,32,16,47,0.00
2013-2-11,47.0,39.1,34.0,14.0,4.6,-3.0,39,25,13,0.00,40.00,30,20,47,0.00
2013-2-12,55.0,43.2,36.0,9.0,4.0,-2.0,27,20,13,0.00,40.00,7,2,15,0.00
2013-2-13,63.0,50.0,42.0,15.0,10.4,6.0,26,20,13,0.00,40.00,18,6,35,0.00
2013-2-14,66.0,54.3,47.0,22.0,18.7,15.0,34,25,15,0.00,40.00,40,20,57,0.00
2013-2-15,68.0,56.6,51.0,20.0,14.8,9.0,28,20,12,0.00,40.00,40,19,55,0.00
2013-2-16,66.0,57.0,50.0,11.0,4.3,-1.0,18,12,8,0.00,40.00,14,4,18,0.00
2013-2-17,67.0,56.9,49.0,18.0,6.3,-2.0,21,13,7,0.00,40.00,24,7,37,0.00
2013-2-18,61.0,53.2,44.0,20.0,14.2,4.0,31,21,14,0.00,40.00,26,10,37,0.00
2013-2-19,49.0,42.2,35.0,30.0,22.4,8.0,72,46,24,0.00,40.00,35,15,60,0.00
2013-2-20,51.0,41.6,33.0,24.0,13.1,4.0,67,34,14,0.00,40.00,51,27,67,0.00
2013-2-21,49.0,40.5,33.0,12.0,6.6,0.0,34,25,16,0.00,40.00,33,13,54,0.00
2013-2-22,58.0,46.3,38.0,15.0,6.6,5.0,29,20,13,0.00,40.00,10,3,19,0.00
2013-2-23,61.0,45.3,36.0,22.0,16.0,2.0,50,32,9,0.00,40.00,52,17,76,0.00
2013-2-24,51.0,40.7,34.0,8.0,1.5,-6.0,30,20,9,0.00,40.00,47,23,60,0.00
2013-2-25,57.0,46.5,38.0,5.0,0.1,-4.0,19,15,10,0.00,40.00,12,3,21,0.00
2013-2-26,61.0,48.1,42.0,6.0,3.5,-1.0,22,16,9,0.00,40.00,25,6,40,0.00
2013-2-27,58.0,47.7,38.0,6.0,2.0,0.0,20,15,11,0.00,40.00,12,4,21,0.00
2013-2-28,64.0,52.7,44.0,8.0,4.3,1.0,22,14,9,0.00,40.00,9,3,17,0.00
2013-3-1,74.0,59.6,51.0,19.0,13.4,7.0,21,16,11,0.00,40.00,21,8,33,0.00
2013-3-2,71.0,62.7,55.0,23.0,17.0,13.0,22,17,12,0.00,40.00,19,8,29,0.00
2013-3-3,67.0,58.2,51.0,31.0,25.8,17.0,39,29,19,0.00,40.00,41,16,61,0.00
2013-3-4,71.0,56.5,48.0,29.0,22.9,13.0,45,29,12,0.00,40.00,31,13,46,0.00
2013-3-5,66.0,56.8,47.0,29.0,23.9,16.0,39,29,16,0.00,40.00,29,11,40,0.00
2013-3-6,58.0,49.5,40.0,29.0,20.1,10.0,65,33,18,0.00,40.00,32,15,56,0.00
2013-3-7,55.0,44.7,37.0,31.0,26.9,12.0,70,51,23,0.00,40.00,28,8,37,0.00
2013-3-8,42.0,37.1,34.0,36.0,31.5,22.0,98,81,45,0.00,40.00,28,6,42,0.00
2013-3-9,58.0,48.2,41.0,22.0,15.6,3.0,45,29,14,0.00,40.00,47,29,68,0.00
2013-3-10,68.0,54.7,46.0,5.0,0.6,-6.0,15,11,6,0.00,40.00,47,21,68,0.00
2013-3-11,70.0,59.3,52.0,9.0,3.7,-3.0,13,11,8,0.00,40.00,10,3,17,0.00
2013-3-12,75.0,64.4,57.0,12.0,8.7,6.0,14,11,7,0.00,40.00,14,5,23,0.00
2013-3-13,78.0,67.8,59.0,17.0,13.4,9.0,15,12,9,0.00,40.00,12,4,21,0.00
2013-3-14,82.0,70.6,62.0,22.0,17.8,15.0,17,14,9,0.00,40.00,18,6,27,0.00
2013-3-15,85.0,73.2,66.0,36.0,21.9,14.0,26,15,9,0.00,40.00,34,10,47,0.00
2013-3-16,82.0,70.0,63.0,33.0,16.9,6.0,21,14,7,0.00,40.00,35,20,56,0.00
2013-3-17,77.0,65.8,55.0,18.0,10.0,3.0,16,11,8,0.00,40.00,29,15,54,0.00
2013-3-18,70.0,63.8,55.0,26.0,11.1,-3.0,23,13,7,0.00,40.00,35,14,51,0.00
2013-3-19,75.0,65.0,58.0,28.0,22.5,16.0,28,20,12,0.00,40.00,34,20,51,0.00
2013-3-20,75.0,63.6,56.0,32.0,25.3,11.0,40,24,14,0.00,40.00,29,13,59,0.00
2013-3-21,74.0,64.8,55.0,26.0,13.2,5.0,24,14,9,0.00,40.00,36,16,51,0.00
2013-3-22,73.0,59.6,50.0,20.0,14.3,-8.0,29,18,5,0.00,40.00,41,19,56,0.00
2013-3-23,65.0,56.6,49.0,9.0,-1.6,-9.0,15,9,6,0.00,40.00,26,10,45,0.00
2013-3-24,71.0,58.5,48.0,17.0,3.8,-1.0,21,11,7,0.00,40.00,11,5,21,0.00
2013-3-25,71.0,61.2,53.0,20.0,14.5,-10.0,25,17,5,0.00,40.00,17,6,25,0.00
2013-3-26,74.0,62.8,57.0,23.0,8.8,-10.0,23,12,5,0.00,40.00,33,18,52,0.00
2013-3-27,70.0,62.4,55.0,29.0,22.4,16.0,27,22,16,0.00,40.00,32,16,45,0.00
2013-3-28,72.0,66.1,59.0,34.0,26.2,19.0,30,22,18,0.00,40.00,28,17,45,0.00
2013-3-29,75.0,64.6,54.0,28.0,22.2,14.0,32,21,11,0.00,40.00,16,7,31,0.00
2013-3-30,79.0,66.1,58.0,33.0,25.4,-99.9,38,24,11,0.00,40.00,19,7,26,0.00
2013-3-31,71.0,59.1,51.0,39.0,33.7,27.0,56,40,21,0.00,40.00,27,10,40,0.00
2013-4-1,69.0,57.5,50.0,31.0,26.3,16.0,47,31,19,0.00,40.00,28,14,43,0.00
2013-4-2,73.0,61.3,53.0,34.0,24.4,16.0,37,25,13,0.00,40.00,28,14,41,0.00
2013-4-3,77.0,66.8,58.0,34.0,24.9,20.0,37,21,13,0.00,40.00,18,7,28,0.00
2013-4-4,71.0,64.7,59.0,37.0,28.6,21.0,32,26,18,0.00,40.00,30,14,50,0.00
2013-4-5,73.0,63.8,56.0,34.0,23.7,18.0,32,22,13,0.00,40.00,30,18,47,0.00
2013-4-6,76.0,65.2,57.0,33.0,25.1,14.0,30,22,13,0.00,40.00,31,14,40,0.00
2013-4-7,78.0,64.4,56.0,34.0,24.2,8.0,32,22,10,0.00,40.00,40,15,55,0.00
2013-4-8,58.0,50.1,37.0,35.0,21.7,11.0,84,34,23,0.00,40.00,66,27,88,0.01
2013-4-9,64.0,51.0,41.0,17.0,7.7,-1.0,35,19,8,0.00,40.00,61,44,85,0.01
2013-4-10,79.0,63.3,51.0,24.0,10.9,6.0,21,13,8,0.00,40.00,43,21,67,0.00
2013-4-11,78.0,67.6,57.0,25.0,20.1,16.0,25,17,10,0.00,40.00,24,9,35,0.00
2013-4-12,79.0,67.5,59.0,27.0,23.1,15.0,26,19,12,0.00,40.00,30,17,41,0.00
2013-4-13,81.0,70.7,62.0,32.0,19.9,-1.0,26,15,7,0.00,40.00,45,20,69,0.00
2013-4-14,80.0,70.8,63.0,30.0,24.0,9.0,23,18,10,0.00,40.00,44,23,80,0.00
2013-4-15,73.0,58.0,48.0,21.0,10.8,-21.0,31,17,2,0.00,40.00,36,19,64,0.00
2013-4-16,52.0,45.8,41.0,21.0,14.4,-7.0,41,29,12,0.00,40.00,44,26,56,0.00
2013-4-17,60.0,47.5,38.0,13.0,6.4,1.0,32,20,9,0.00,40.00,47,32,63,0.00
2013-4-18,67.0,53.2,43.0,9.0,2.9,-1.0,21,14,7,0.00,40.00,38,17,48,0.00
2013-4-19,74.0,62.4,52.0,25.0,8.7,0.0,21,12,7,0.00,40.00,19,8,34,0.00
2013-4-20,79.0,68.0,58.0,32.0,21.3,16.0,24,18,10,0.00,40.00,28,15,49,0.00
2013-4-21,85.0,72.4,60.0,29.0,22.2,17.0,27,16,9,0.00,40.00,27,9,42,0.00
2013-4-22,86.0,74.5,64.0,30.0,24.1,20.0,23,16,9,0.00,40.00,37,14,45,0.00
2013-4-23,75.0,64.9,57.0,27.0,13.3,3.0,20,14,8,0.00,40.00,48,24,71,0.00
2013-4-24,80.0,67.4,57.0,20.0,6.6,1.0,19,10,5,0.00,40.00,33,13,50,0.00
2013-4-25,83.0,69.1,60.0,31.0,12.7,2.0,25,12,6,0.00,40.00,26,12,38,0.00
2013-4-26,84.0,74.6,64.0,32.0,14.2,3.0,23,11,6,0.00,40.00,28,14,37,0.00
2013-4-27,88.0,76.5,67.0,25.0,17.3,9.0,18,11,5,0.00,40.00,29,14,37,0.00
2013-4-28,90.0,79.8,71.0,29.0,21.3,16.0,16,12,7,0.00,40.00,24,15,38,0.00
2013-4-29,92.0,80.3,70.0,35.0,24.6,19.0,19,13,8,0.00,40.00,22,13,38,0.00
2013-4-30,86.0,78.9,73.0,37.0,27.4,15.0,26,16,7,0.00,40.00,48,20,60,0.00
2013-5-1,79.0,67.9,57.0,19.0,-5.6,-20.0,15,6,2,0.00,40.00,55,29,75,0.00
2013-5-2,78.0,67.0,59.0,0.0,-6.9,-14.0,9,5,3,0.00,40.00,37,19,58,0.00
2013-5-3,82.0,71.0,62.0,21.0,-2.8,-13.0,14,6,3,0.00,40.00,21,8,33,0.00
2013-5-4,84.0,73.2,66.0,25.0,14.8,6.0,20,11,6,0.00,40.00,25,15,38,0.00
2013-5-5,67.0,57.8,48.0,38.0,28.9,22.0,65,35,20,0.00,40.00,26,9,37,0.00
2013-5-6,62.0,52.4,43.0,46.0,38.1,35.0,90,60,39,0.00,40.00,26,8,37,0.03
2013-5-7,64.0,54.2,44.0,43.0,37.3,31.0,76,54,38,0.00,40.00,26,9,42,0.02
2013-5-8,73.0,60.0,49.0,37.0,34.3,29.0,61,40,22,0.00,40.00,16,6,28,0.01
2013-5-9,71.0,60.9,55.0,47.0,38.9,33.0,66,45,31,0.00,40.00,41,11,57,0.09
2013-5-10,86.0,70.9,59.0,43.0,28.3,-99.9,51,25,11,0.00,40.00,34,23,46,0.03
2013-5-11,89.0,78.9,71.0,38.0,27.4,-99.9,23,16,10,0.00,40.00,21,12,29,0.00
2013-5-12,94.0,82.5,73.0,39.0,30.0,18.0,23,16,7,0.00,40.00,19,9,29,0.00
2013-5-13,95.0,84.3,74.0,37.0,28.2,19.0,21,14,7,0.00,40.00,21,12,37,0.00
2013-5-14,87.0,77.9,70.0,33.0,23.5,10.0,25,14,6,0.00,40.00,39,16,60,0.00
2013-5-15,88.0,77.8,69.0,33.0,28.3,12.0,25,17,9,0.00,40.00,37,22,58,0.00
2013-5-16,84.0,66.9,62.0,35.0,9.3,-99.9,33,17,6,0.00,40.00,40,16,56,0.00
2013-5-17,77.0,66.7,60.0,37.0,32.1,-99.9,36,29,20,0.00,40.00,39,23,56,0.00
2013-5-18,83.0,71.0,63.0,31.0,24.6,17.0,26,18,11,0.00,40.00,33,17,44,0.00
2013-5-19,85.0,72.5,64.0,29.0,22.8,13.0,25,16,10,0.00,40.00,36,16,49,0.00
2013-5-20,84.0,71.8,64.0,27.0,16.6,11.0,20,13,7,0.00,40.00,43,24,58,0.00
2013-5-21,89.0,74.1,65.0,29.0,22.5,14.0,22,15,7,0.00,40.00,24,8,40,0.00
2013-5-22,87.0,70.4,60.0,28.0,19.0,-6.0,25,15,6,0.00,40.00,36,23,62,0.00
2013-5-23,81.0,66.4,55.0,19.0,10.5,-6.0,23,12,6,0.00,40.00,31,13,57,0.00
2013-5-24,79.0,67.3,56.0,22.0,13.0,3.0,19,13,6,0.00,40.00,19,8,30,0.00
2013-5-25,82.0,67.9,55.0,28.0,23.4,16.0,33,20,9,0.00,40.00,34,12,49,0.00
2013-5-26,82.0,70.1,60.0,34.0,24.0,16.0,27,18,11,0.00,40.00,33,16,54,0.00
2013-5-27,84.0,73.3,65.0,34.0,26.8,16.0,28,19,10,0.00,40.00,36,18,56,0.00
2013-5-28,86.0,73.6,66.0,37.0,33.8,30.0,30,24,14,0.00,40.00,34,20,54,0.00
2013-5-29,87.0,73.0,61.0,40.0,34.6,25.0,38,25,16,0.00,40.00,26,13,42,0.00
2013-5-30,92.0,78.1,68.0,38.0,28.8,20.0,29,17,10,0.00,40.00,35,15,48,0.00
2013-5-31,92.0,81.9,72.0,24.0,21.0,19.0,16,11,8,0.00,40.00,35,15,47,0.00
2013-6-1,94.0,84.2,75.0,25.0,14.9,9.0,11,8,5,0.00,40.00,24,13,35,0.00
2013-6-2,94.0,84.5,75.0,32.0,22.9,17.0,17,11,7,0.00,40.00,22,10,38,0.00
2013-6-3,92.0,81.4,71.0,36.0,30.6,24.0,25,17,9,0.00,40.00,21,9,34,0.00
2013-6-4,96.0,82.9,70.0,39.0,33.1,23.0,27,18,8,0.00,40.00,19,6,28,0.00
2013-6-5,97.0,85.3,74.0,40.0,31.2,18.0,28,16,6,0.00,40.00,22,8,36,0.00
2013-6-6,102.0,89.7,78.0,39.0,23.8,16.0,17,10,5,0.00,40.00,28,13,40,0.00
2013-6-7,102.0,91.9,81.0,30.0,23.8,16.0,15,9,5,0.00,40.00,32,12,44,0.00
2013-6-8,105.0,94.2,85.0,34.0,22.8,18.0,13,8,5,0.00,40.00,37,15,49,0.00
2013-6-9,95.0,86.4,76.0,41.0,24.7,-3.0,24,13,3,0.00,40.00,23,9,42,0.00
2013-6-10,82.0,75.9,68.0,36.0,19.8,4.0,23,13,6,0.00,40.00,39,16,57,0.00
2013-6-11,95.0,81.5,71.0,36.0,29.8,19.0,25,16,8,0.00,40.00,39,14,57,0.00
2013-6-12,94.0,82.6,73.0,38.0,24.0,15.0,25,12,8,0.00,40.00,30,12,48,0.00
2013-6-13,95.0,81.6,73.0,33.0,19.0,-28.0,21,11,1,0.00,40.00,42,20,58,0.00
2013-6-14,90.0,79.5,69.0,22.0,12.0,4.0,12,8,4,0.00,40.00,29,17,42,0.00
2013-6-15,91.0,78.4,67.0,28.0,19.0,10.0,20,12,5,0.00,40.00,30,12,43,0.00
2013-6-16,91.0,79.9,69.0,27.0,20.4,12.0,15,11,7,0.00,40.00,30,13,44,0.00
2013-6-17,93.0,80.7,71.0,30.0,25.4,14.0,21,14,6,0.00,40.00,31,12,45,0.00
2013-6-18,88.0,78.5,68.0,31.0,23.6,11.0,21,14,8,0.00,40.00,30,18,46,0.00
2013-6-19,86.0,76.0,66.0,27.0,18.2,6.0,21,12,6,0.00,40.00,35,14,53,0.00
2013-6-20,86.0,73.9,65.0,23.0,13.3,7.0,15,10,6,0.00,40.00,30,15,41,0.00
2013-6-22,91.0,83.9,74.0,28.0,23.6,19.0,16,11,8,0.00,40.00,27,16,43,0.00
2013-6-23,86.0,76.3,67.0,36.0,29.9,26.0,26,19,13,0.00,40.00,48,15,64,0.00
2013-6-24,86.0,73.8,68.0,47.0,36.7,26.0,42,27,18,0.00,40.00,35,22,66,0.00
2013-6-25,90.0,77.4,65.0,48.0,44.6,41.0,54,33,21,0.00,40.00,33,13,46,0.00
2013-6-26,100.0,83.7,69.0,49.0,44.2,35.0,47,27,11,0.00,40.00,19,8,36,0.00
2013-6-27,101.0,87.8,75.0,48.0,42.3,35.0,35,22,11,0.00,40.00,14,7,24,0.00
2013-6-28,104.0,93.5,82.0,47.0,39.6,27.0,29,17,7,0.00,40.00,19,9,31,0.00
2013-6-29,107.0,94.5,82.0,46.0,38.7,30.0,27,15,7,0.00,40.00,20,9,29,0.00
2013-6-30,107.0,95.9,86.0,34.0,29.6,23.0,14,10,6,0.00,40.00,24,11,37,0.00
2013-7-1,107.0,97.0,87.0,39.0,31.3,24.0,16,10,7,0.00,40.00,21,9,31,0.00
2013-7-2,106.0,93.0,83.0,44.0,40.1,35.0,24,17,9,0.00,40.00,42,22,53,0.00
2013-7-3,105.0,93.1,86.0,41.0,39.0,35.0,20,16,9,0.00,40.00,42,24,68,0.00
2013-7-4,106.0,94.2,85.0,50.0,39.8,35.0,26,16,10,0.00,40.00,42,18,53,0.00
2013-7-5,102.0,90.6,82.0,47.0,42.7,35.0,29,20,11,0.00,40.00,25,14,43,0.00
2013-7-6,100.0,88.4,78.0,43.0,31.8,24.0,23,14,8,0.00,40.00,24,14,42,0.00
2013-7-7,99.0,88.4,79.0,33.0,26.6,22.0,17,11,7,0.00,40.00,28,9,44,0.00
2013-7-8,97.0,86.3,82.0,23.0,20.1,11.0,11,9,5,0.00,40.00,28,19,47,0.00
2013-7-9,101.0,89.4,81.0,28.0,17.2,6.0,12,7,5,0.00,40.00,27,13,46,0.00
2013-7-10,98.0,88.4,84.0,44.0,27.7,-99.9,25,12,7,0.00,40.00,24,12,38,0.00
2013-7-11,84.0,79.5,76.0,56.0,46.9,41.0,50,33,25,0.00,40.00,30,12,51,0.00
2013-7-12,93.0,81.4,71.0,43.0,33.7,13.0,35,20,7,0.00,40.00,23,11,37,0.00
2013-7-13,97.0,85.7,73.0,30.0,23.9,11.0,14,11,7,0.00,40.00,24,13,38,0.00
2013-7-14,98.0,88.4,80.0,38.0,30.5,27.0,16,13,10,0.00,40.00,24,13,37,0.00
2013-7-15,96.0,87.2,79.0,36.0,31.4,27.0,18,14,11,0.00,40.00,28,10,42,0.00
2013-7-16,94.0,87.7,80.0,31.0,26.1,23.0,14,11,8,0.00,40.00,19,11,38,0.00
2013-7-17,97.0,83.6,70.0,36.0,23.9,11.0,19,12,5,0.00,40.00,15,5,25,0.00
2013-7-18,101.0,90.2,76.0,33.0,25.8,18.0,18,11,6,0.00,40.00,14,7,22,0.00
2013-7-19,104.0,92.1,81.0,34.0,28.5,23.0,15,11,6,0.00,40.00,14,7,27,0.00
2013-7-20,100.0,89.0,77.0,43.0,33.6,27.0,23,14,10,0.00,40.00,16,6,25,0.00
2013-7-21,96.0,86.1,75.0,62.0,46.9,40.0,59,27,18,0.00,40.00,19,8,33,0.00
2013-7-22,91.0,78.0,69.0,65.0,59.4,54.0,88,56,30,0.00,40.00,20,6,32,0.05
2013-7-23,93.0,78.6,68.0,59.0,55.1,49.0,73,46,29,0.00,40.00,51,13,68,0.05
2013-7-24,97.0,86.2,74.0,55.0,48.8,37.0,48,29,17,0.00,40.00,19,9,32,0.01
2013-7-25,101.0,90.2,79.0,47.0,41.0,34.0,27,19,10,0.00,40.00,19,8,34,0.00
2013-7-26,88.0,84.2,81.0,52.0,46.7,39.0,37,28,18,0.00,40.00,22,11,32,0.00
2013-7-27,92.0,80.0,70.0,61.0,55.3,50.0,73,44,27,0.00,40.00,25,12,32,0.00
2013-7-28,90.0,80.5,73.0,58.0,51.9,44.0,50,38,29,0.00,40.00,20,6,27,0.60
2013-7-29,93.0,80.3,70.0,53.0,42.3,28.0,49,29,10,0.00,40.00,27,11,38,0.02
2013-7-30,94.0,83.6,72.0,40.0,36.8,31.0,28,19,13,0.00,40.00,20,9,32,0.00
2013-7-31,92.0,82.6,73.0,42.0,31.8,13.0,30,18,6,0.00,40.00,29,11,41,0.00
2013-8-1,91.0,81.4,69.0,34.0,28.9,23.0,24,15,10,0.00,40.00,28,13,44,0.00
2013-8-2,90.0,78.6,68.0,35.0,29.5,23.0,29,18,9,0.00,40.00,15,5,26,0.00
2013-8-3,93.0,79.6,67.0,25.0,21.3,16.0,17,12,6,0.00,40.00,14,6,26,0.00
2013-8-4,95.0,82.7,71.0,25.0,19.1,7.0,14,10,4,0.00,40.00,19,8,30,0.00
2013-8-5,94.0,83.2,72.0,27.0,22.8,13.0,17,11,7,0.00,40.00,20,10,35,0.00
2013-8-6,95.0,82.4,71.0,30.0,23.6,13.0,17,12,7,0.00,40.00,26,10,39,0.00
2013-8-7,89.0,78.8,69.0,35.0,28.1,6.0,27,17,6,0.00,40.00,35,12,49,0.00
2013-8-8,88.0,75.3,63.0,31.0,22.0,4.0,29,15,4,0.00,40.00,28,11,47,0.00
2013-8-9,88.0,75.6,62.0,34.0,27.1,15.0,33,18,7,0.00,40.00,21,8,31,0.00
2013-8-10,88.0,78.2,66.0,36.0,32.4,18.0,30,20,10,0.00,40.00,16,7,30,0.00
2013-8-11,91.0,80.3,67.0,39.0,28.4,19.0,24,16,8,0.00,40.00,19,8,30,0.00
2013-8-12,93.0,81.8,69.0,37.0,29.6,20.0,27,16,8,0.00,40.00,21,9,32,0.00
2013-8-13,97.0,83.9,73.0,29.0,23.1,-99.9,18,12,5,0.00,40.00,21,8,31,0.00
2013-8-14,98.0,86.4,77.0,28.0,19.9,-99.9,13,10,5,0.00,40.00,17,8,29,0.00
2013-8-15,97.0,81.4,76.0,35.0,16.9,-99.9,16,11,8,0.00,40.00,30,11,44,0.00
2013-8-16,97.0,87.1,77.0,43.0,35.4,31.0,20,16,12,0.00,40.00,26,9,38,0.00
2013-8-17,99.0,85.4,76.0,43.0,35.7,-99.9,31,19,10,0.00,40.00,21,7,31,0.00
2013-8-18,97.0,84.8,72.0,50.0,36.6,26.0,46,19,12,0.00,40.00,48,10,73,0.00
2013-8-19,95.0,77.3,69.0,52.0,39.2,-99.9,55,31,21,0.00,40.00,33,16,45,0.00
2013-8-20,97.0,84.7,77.0,47.0,38.7,-99.9,32,22,9,0.00,40.00,24,12,37,0.00
2013-8-21,95.0,86.0,79.0,43.0,36.1,31.0,27,18,12,0.00,40.00,24,11,37,0.00
2013-8-22,99.0,85.3,74.0,40.0,34.2,27.0,27,17,10,0.00,40.00,32,9,44,0.00
2013-8-23,94.0,82.5,71.0,37.0,27.8,17.0,28,15,7,0.00,40.00,26,11,41,0.00
2013-8-24,92.0,78.7,69.0,40.0,25.9,-99.9,26,16,6,0.00,40.00,26,9,38,0.00
2013-8-25,92.0,78.3,68.0,36.0,28.8,21.0,29,18,9,0.00,40.00,21,9,36,0.00
2013-8-26,88.0,77.2,66.0,59.0,53.3,48.0,74,46,28,0.00,40.00,19,11,30,0.00
2013-8-27,85.0,72.8,68.0,59.0,56.0,54.0,66,57,39,0.00,40.00,7,3,21,0.00
2013-8-28,92.0,86.8,79.0,52.0,47.8,42.0,38,26,21,0.00,40.00,25,15,38,0.00
2013-8-29,97.0,84.9,76.0,46.0,43.3,40.0,32,24,15,0.00,40.00,19,7,30,0.00
2013-8-30,96.0,83.4,74.0,60.0,53.5,43.0,53,37,24,0.00,40.00,18,6,30,0.00
2013-8-31,94.0,82.0,73.0,60.0,52.2,-99.9,56,38,24,0.00,40.00,13,5,25,0.00
2013-9-1,90.0,81.8,73.0,52.0,47.6,39.0,44,32,17,0.00,40.00,26,10,44,0.00
2013-9-2,93.0,83.1,72.0,55.0,46.3,38.0,52,29,15,0.00,40.00,27,12,42,0.00
2013-9-3,93.0,82.8,73.0,52.0,47.7,42.0,46,31,19,0.00,40.00,28,10,39,0.00
2013-9-4,97.0,84.4,75.0,50.0,45.4,38.0,38,27,14,0.00,40.00,24,7,37,0.00
2013-9-5,95.0,84.9,75.0,47.0,42.6,37.0,36,24,14,0.00,40.00,21,8,36,0.00
2013-9-6,96.0,86.2,79.0,43.0,35.5,31.0,26,17,11,0.00,40.00,18,11,34,0.00
2013-9-7,99.0,82.9,72.0,42.0,32.8,-99.9,30,18,8,0.00,40.00,19,8,36,0.00
2013-9-8,91.0,80.9,71.0,55.0,44.5,33.0,58,29,13,0.00,40.00,16,7,31,0.00
2013-9-9,93.0,79.9,67.0,55.0,43.1,33.0,58,30,15,0.00,40.00,21,9,30,0.00
2013-9-10,90.0,78.4,68.0,52.0,40.2,33.0,51,27,18,0.00,40.00,27,11,54,0.00
2013-9-11,86.0,76.1,66.0,41.0,38.3,37.0,38,26,18,0.00,40.00,20,3,34,0.00
2013-9-12,91.0,78.9,69.0,42.0,39.1,36.0,34,25,16,0.00,40.00,18,7,28,0.00
2013-9-13,93.0,81.3,72.0,45.0,41.0,37.0,32,24,17,0.00,40.00,19,8,28,0.00
2013-9-14,94.0,83.6,77.0,43.0,36.6,-99.9,28,20,12,0.00,40.00,17,12,29,0.00
2013-9-15,94.0,85.6,77.0,35.0,31.2,28.0,20,15,10,0.00,40.00,28,14,42,0.00
2013-9-16,91.0,82.7,75.0,36.0,30.4,26.0,23,15,10,0.00,40.00,32,12,44,0.00
2013-9-17,86.0,74.7,67.0,36.0,29.8,20.0,27,20,12,0.00,40.00,35,10,51,0.00
2013-9-18,76.0,70.6,65.0,34.0,25.3,19.0,32,19,14,0.00,40.00,28,10,49,0.00
2013-9-19,89.0,77.3,68.0,23.0,16.8,14.0,15,11,7,0.00,40.00,30,14,42,0.00
2013-9-20,87.0,78.5,71.0,32.0,21.9,15.0,21,13,9,0.00,40.00,33,13,43,0.00
2013-9-21,80.0,68.6,58.0,36.0,30.2,-99.9,44,25,17,0.00,40.00,23,11,62,0.00
2013-9-22,78.0,63.8,55.0,31.0,23.3,13.0,35,22,11,0.00,40.00,30,14,49,0.00
2013-9-23,83.0,71.0,62.0,29.0,25.2,20.0,26,18,12,0.00,40.00,13,5,22,0.00
2013-9-24,86.0,73.2,63.0,30.0,27.0,19.0,27,19,9,0.00,40.00,25,7,40,0.00
2013-9-25,77.0,68.0,57.0,30.0,24.9,-1.0,25,20,7,0.00,40.00,35,18,59,0.01
2013-9-26,68.0,56.6,49.0,24.0,18.2,8.0,31,22,13,0.00,40.00,36,22,48,0.01
2013-9-27,71.0,58.4,50.0,22.0,18.0,12.0,33,22,12,0.00,40.00,40,20,55,0.00
2013-9-28,77.0,65.5,56.0,19.0,13.8,-99.9,20,14,9,0.00,40.00,10,4,22,0.00
2013-9-29,85.0,70.9,60.0,19.0,16.0,13.0,17,12,8,0.00,40.00,26,6,37,0.00
2013-9-30,84.0,74.2,63.0,32.0,20.5,14.0,22,13,10,0.00,40.00,27,10,41,0.00
2013-10-1,83.0,75.8,67.0,38.0,32.3,22.0,34,21,13,0.00,40.00,31,12,41,0.00
2013-10-2,83.0,69.8,61.0,43.0,36.5,19.0,48,31,14,0.00,40.00,30,9,50,0.00
2013-10-3,81.0,68.9,58.0,27.0,15.4,2.0,23,13,7,0.00,40.00,50,20,67,0.00
2013-10-4,67.0,57.7,50.0,13.0,7.3,2.0,22,14,8,0.00,40.00,55,34,74,0.00
2013-10-5,76.0,62.2,55.0,10.0,7.4,6.0,15,11,7,0.00,40.00,31,16,46,0.00
2013-10-6,80.0,67.8,57.0,8.0,5.0,2.0,12,8,6,0.00,40.00,10,4,18,0.00
2013-10-7,78.0,68.8,61.0,9.0,3.3,-2.0,9,7,6,0.00,40.00,22,7,32,0.00
2013-10-8,77.0,66.9,60.0,14.0,6.9,-4.0,15,10,6,0.00,40.00,27,12,48,0.00
2013-10-9,62.0,53.2,45.0,38.0,26.7,11.0,73,40,13,0.00,40.00,38,23,52,0.00
2013-10-10,66.0,55.0,45.0,39.0,32.8,28.0,76,46,24,0.00,40.00,23,7,33,0.00
2013-10-11,69.0,59.0,50.0,33.0,29.1,23.0,48,33,19,0.00,40.00,18,5,27,0.00
2013-10-12,72.0,60.9,53.0,31.0,22.4,-99.9,38,25,11,0.00,40.00,28,10,45,0.00
2013-10-13,72.0,60.5,54.0,27.0,20.8,14.0,32,22,14,0.00,40.00,22,11,43,0.00
2013-10-14,68.0,57.9,51.0,29.0,24.3,15.0,42,29,13,0.00,40.00,31,16,41,0.00
2013-10-15,68.0,59.3,53.0,26.0,20.1,11.0,33,22,13,0.00,40.00,39,16,55,0.00
2013-10-16,72.0,59.0,50.0,19.0,14.4,10.0,26,18,11,0.00,40.00,18,7,27,0.00
2013-10-17,75.0,63.1,55.0,16.0,12.3,10.0,18,14,9,0.00,40.00,12,4,18,0.00
2013-10-18,78.0,65.8,57.0,14.0,11.9,9.0,17,12,8,0.00,40.00,31,14,47,0.00
2013-10-19,79.0,67.5,60.0,14.0,9.3,-99.9,13,10,7,0.00,40.00,11,4,18,0.00
2013-10-20,82.0,70.6,62.0,13.0,9.8,7.0,11,9,7,0.00,40.00,14,5,25,0.00
2013-10-21,78.0,69.7,63.0,13.0,10.6,8.0,13,10,7,0.00,40.00,29,12,40,0.00
2013-10-22,79.0,69.0,61.0,18.0,13.8,10.0,14,12,9,0.00,40.00,11,4,22,0.00
2013-10-23,80.0,68.6,62.0,18.0,15.4,13.0,18,13,9,0.00,40.00,18,7,24,0.00
2013-10-24,80.0,70.4,63.0,18.0,15.3,12.0,15,12,9,0.00,40.00,20,10,28,0.00
2013-10-25,81.0,70.8,63.0,20.0,15.1,12.0,16,12,8,0.00,40.00,14,6,22,0.00
2013-10-26,81.0,69.8,63.0,20.0,13.9,-99.9,16,12,8,0.00,40.00,9,4,18,0.00
2013-10-27,78.0,67.5,59.0,29.0,19.4,12.0,32,17,9,0.00,40.00,24,7,58,0.00
2013-10-28,60.0,48.2,43.0,35.0,27.1,15.0,69,46,21,0.00,40.00,30,16,58,0.00
2013-10-29,58.0,47.2,39.0,33.0,28.6,24.0,74,49,34,0.00,40.00,21,8,37,0.00
2013-10-30,61.0,50.1,42.0,29.0,23.8,21.0,49,37,22,0.00,40.00,28,8,39,0.00
2013-10-31,67.0,56.3,49.0,22.0,17.3,12.0,34,22,14,0.00,40.00,8,2,14,0.00
2013-11-1,73.0,60.4,52.0,22.0,17.9,14.0,24,19,13,0.00,40.00,10,4,16,0.00
2013-11-2,70.0,59.6,53.0,22.0,18.6,-99.9,25,21,15,0.00,40.00,10,4,18,0.00
2013-11-3,69.0,59.4,53.0,26.0,19.4,11.0,29,22,14,0.00,40.00,20,7,49,0.00
2013-11-4,57.0,52.3,47.0,25.0,19.1,12.0,36,27,22,0.00,40.00,38,21,48,0.00
2013-11-5,60.0,49.3,42.0,13.0,6.2,1.0,27,18,10,0.00,40.00,33,16,52,0.00
2013-11-6,66.0,54.8,46.0,10.0,4.7,1.0,16,13,9,0.00,40.00,9,2,19,0.00
2013-11-7,67.0,59.6,53.0,18.0,13.6,10.0,24,16,12,0.00,40.00,10,3,17,0.00
2013-11-8,70.0,59.5,53.0,15.0,12.3,10.0,19,16,11,0.00,40.00,8,3,16,0.00
2013-11-9,70.0,59.6,54.0,14.0,10.2,-99.9,19,14,11,0.00,40.00,8,2,15,0.00
2013-11-10,70.0,61.9,56.0,12.0,9.2,4.0,15,12,9,0.00,40.00,8,4,15,0.00
2013-11-11,75.0,63.9,57.0,12.0,7.2,2.0,14,11,8,0.00,40.00,12,3,17,0.00
2013-11-12,74.0,66.7,63.0,12.0,8.6,2.0,13,10,8,0.00,40.00,6,2,11,0.00
2013-11-13,77.0,65.9,60.0,23.0,19.1,11.0,23,17,11,0.00,40.00,29,7,37,0.00
2013-11-14,73.0,65.1,59.0,24.0,19.0,8.0,26,17,10,0.00,40.00,27,11,37,0.00
2013-11-15,66.0,59.5,50.0,28.0,17.9,5.0,43,21,10,0.00,40.00,29,12,42,0.00
2013-11-16,61.0,49.8,42.0,35.0,30.0,-99.9,68,49,32,0.00,40.00,7,2,19,0.00
2013-11-17,60.0,51.7,44.0,34.0,30.9,29.0,59,46,33,0.00,40.00,13,4,20,0.00
2013-11-18,60.0,53.0,48.0,36.0,33.8,31.0,57,48,36,0.00,40.00,13,5,22,0.00
2013-11-19,58.0,50.6,46.0,36.0,34.1,31.0,64,53,42,0.00,40.00,7,4,16,0.00
2013-11-20,63.0,53.8,47.0,36.0,34.4,32.0,62,48,36,0.00,40.00,19,7,34,0.00
2013-11-21,55.0,45.7,35.0,37.0,33.8,30.0,93,65,47,0.00,40.00,60,26,81,0.03
2013-11-22,38.0,34.0,32.0,33.0,32.5,31.0,100,95,76,0.00,40.00,65,55,88,0.08
2013-11-23,45.0,39.5,37.0,37.0,29.6,-99.9,89,71,50,0.00,40.00,60,26,79,0.04
2013-11-24,55.0,43.8,37.0,38.0,31.6,25.0,89,63,46,0.00,40.00,9,2,14,0.01
2013-11-25,61.0,50.9,44.0,33.0,25.6,21.0,49,38,30,0.00,40.00,31,8,43,0.00
2013-11-26,59.0,52.7,47.0,32.0,25.2,18.0,43,34,26,0.00,40.00,7,3,13,0.00
2013-11-27,60.0,53.2,47.0,32.0,27.3,21.0,54,37,27,0.00,40.00,9,3,16,0.00
2013-11-28,59.0,50.7,47.0,32.0,28.0,25.0,54,42,29,0.00,40.00,8,4,11,0.00
2013-11-29,56.0,49.5,46.0,28.0,26.8,25.0,48,41,33,0.00,40.00,17,9,24,0.00
2013-11-30,59.0,50.8,46.0,27.0,22.4,-99.9,46,34,25,0.00,40.00,18,8,31,0.00
2013-12-1,64.0,54.5,49.0,23.0,19.1,16.0,30,25,18,0.00,40.00,11,3,18,0.00
2013-12-2,68.0,59.8,50.0,23.0,13.9,5.0,25,17,9,0.00,40.00,23,8,40,0.00
2013-12-3,63.0,54.7,39.0,33.0,24.0,8.0,47,32,13,0.00,40.00,28,15,74,0.00
2013-12-4,41.0,33.8,30.0,14.0,6.9,3.0,41,32,21,0.00,40.00,32,16,47,0.00
2013-12-5,42.0,31.8,27.0,10.0,6.7,3.0,46,35,23,0.00,40.00,18,5,24,0.00
2013-12-6,41.0,33.4,27.0,9.0,4.8,-8.0,46,31,15,0.00,40.00,9,4,23,0.00
2013-12-7,40.0,34.8,32.0,31.0,8.6,-99.9,85,38,17,0.00,40.00,31,18,63,0.00
2013-12-8,34.0,29.7,26.0,9.0,6.4,1.0,45,37,25,0.00,40.00,18,9,31,0.00
2013-12-9,41.0,32.1,23.0,4.0,-0.6,-8.0,41,24,17,0.00,40.00,35,10,50,0.00
2013-12-10,46.0,36.7,29.0,2.0,-5.8,-99.9,25,19,13,0.00,40.00,6,-45,14,0.00
2013-12-11,52.0,43.4,37.0,7.0,3.8,-1.0,23,19,12,0.00,40.00,12,3,18,0.00
2013-12-12,55.0,45.9,41.0,10.0,6.2,2.0,23,19,14,0.00,40.00,14,4,17,0.00
2013-12-13,58.0,48.3,40.0,18.0,7.6,1.0,28,20,10,0.00,40.00,37,10,51,0.00
2013-12-14,59.0,47.5,41.0,20.0,14.6,-99.9,43,28,18,0.00,40.00,35,14,47,0.00
2013-12-15,62.0,52.1,44.0,13.0,10.0,6.0,23,18,14,0.00,40.00,10,4,16,0.00
2013-12-16,63.0,58.9,52.0,14.0,10.1,8.0,18,14,12,0.00,40.00,8,5,16,0.00
2013-12-17,66.0,59.5,55.0,13.0,11.3,7.0,17,15,12,0.00,40.00,7,2,10,0.00
2013-12-18,58.0,53.8,48.0,17.0,14.2,11.0,26,21,15,0.00,40.00,8,3,23,0.00
2013-12-19,52.0,43.7,38.0,36.0,23.2,11.0,90,49,20,0.00,40.00,49,24,65,0.03
2013-12-20,51.0,39.7,32.0,18.0,11.1,0.0,51,34,12,0.00,40.00,43,21,60,0.02
2013-12-21,58.0,48.9,41.0,26.0,18.3,-99.9,44,31,22,0.00,40.00,9,2,15,0.00
2013-12-22,59.0,50.1,45.0,26.0,23.1,19.0,42,35,25,0.00,40.00,8,2,13,0.00
2013-12-23,62.0,51.0,45.0,27.0,24.8,21.0,47,36,25,0.00,40.00,8,2,14,0.00
2013-12-24,64.0,54.3,46.0,27.0,21.8,15.0,40,29,16,0.00,40.00,35,6,48,0.00
2013-12-25,64.0,53.3,47.0,17.0,11.1,-13.0,29,19,6,0.00,40.00,31,12,44,0.00
2013-12-26,60.0,51.5,43.0,4.0,0.2,-16.0,18,12,4,0.00,40.00,19,9,25,0.00
2013-12-27,64.0,57.0,52.0,2.0,-4.0,-14.0,10,8,5,0.00,40.00,9,2,16,0.00
2013-12-28,61.0,54.5,49.0,4.0,-2.6,-99.9,13,10,7,0.00,40.00,52,19,67,0.00
2013-12-29,61.0,51.4,47.0,4.0,-1.3,-8.0,15,11,6,0.00,40.00,52,20,69,0.00
2013-12-30,61.0,51.3,46.0,4.0,-2.4,-7.0,12,11,9,0.00,40.00,8,2,11,0.00
2013-12-31,60.0,51.2,46.0,4.0,0.8,-3.0,15,12,10,0.00,40.00,7,2,12,0.00
2014-1-1,64.0,55.4,49.0,14.0,8.1,2.0,21,15,11,0.00,40.00,9,3,21,0.00
2014-1-2,64.0,54.6,50.0,20.0,16.9,14.0,27,23,15,0.00,40.00,7,2,14,0.00